Portada
METAR-TAF:

METAR-TAF

Aeroports :

Tokushima, Japó

latitud: 34-08N, longitud: 134-37E, altitud: 8 m

Observació

L'informe es va fer fa 34 minuts, a les 18:00 UTC
Vent 5 kt del Nord-Oest
Temperatura 9°C
Humitat 71%
Pressió 1024 hPa
Visibilitat 10 km o més
Escasses núvols a una alçada de 1500 ft
Cel ennuvolat a una alçada de 3000 ft
Cel ennuvolat a una alçada de 4500 ft

METAR: RJOS 241800Z 32005KT 9999 FEW015 BKN030 BKN045 09/04 Q1024

Hora: 03:34 (18:34 UTC)


TAF: manca

Observacions i pronòstics meteorològics de més de 4000 aeroports (METAR i TAF).

Les estacions disponibles són els punts grocs i vermells al mapa.

Posi el ratolí al punt desitjat per veure el nom de l'estació.

Feu clic per veure les observacions i els pronòstics meteorològics.

Per canviar el mapa: feu clic els botons verds amb una creu de color negre per apropar; al botó verd amb un guió per allunyar la imatge; o en les fletxes verdes per a mapes adjacents.


METAR-TAF: